| time (UTC) | temp C | wind direction | speed KPH | gust KPH | rain 1hr cm | rain 24hr cm | rain mn cm | humidity % | barometer mb |
| 20260506153052 | 3 | 274 | 4.8 | 14.5 | 0.00 | 0.03 | 0.00 | 83 | 1014.0 |
| 20260506151545 | 3 | 141 | 6.4 | 19.3 | 0.00 | 0.03 | 0.00 | 83 | 1014.1 |
| 20260506150043 | 3 | 219 | 6.4 | 19.3 | 0.00 | 0.03 | 0.00 | 83 | 1013.9 |
| 20260506144557 | 3 | 229 | 8.0 | 20.9 | 0.00 | 0.03 | 0.00 | 83 | 1013.9 |
| 20260506143047 | 3 | 169 | 8.0 | 20.9 | 0.00 | 0.03 | 0.00 | 83 | 1013.8 |
| 20260506141502 | 3 | 181 | 6.4 | 16.1 | 0.00 | 0.03 | 0.00 | 81 | 1013.6 |
| 20260506140052 | 3 | 162 | 6.4 | 20.9 | 0.00 | 0.03 | 0.00 | 82 | 1013.5 |
| 20260506134516 | 3 | 204 | 8.0 | 19.3 | 0.00 | 0.03 | 0.00 | 81 | 1013.4 |
| 20260506133100 | 3 | 210 | 4.8 | 17.7 | 0.00 | 0.03 | 0.00 | 80 | 1013.3 |
| 20260506131607 | 3 | 255 | 4.8 | 22.5 | 0.00 | 0.03 | 0.00 | 80 | 1013.1 |
| 20260506130045 | 3 | 179 | 6.4 | 12.9 | 0.00 | 0.03 | 0.00 | 79 | 1013.0 |
| 20260506124609 | 3 | 221 | 6.4 | 17.7 | 0.00 | 0.10 | 0.00 | 79 | 1012.9 |
| 20260506123049 | 3 | 207 | 6.4 | 22.5 | 0.00 | 0.10 | 0.00 | 79 | 1013.0 |
| 20260506121504 | 3 | 184 | 12.9 | 32.2 | 0.00 | 0.10 | 0.00 | 78 | 1012.9 |
| 20260506114649 | 3 | 155 | 6.4 | 12.9 | 0.00 | 0.10 | 0.00 | 77 | 1012.7 |
| 20260506113047 | 3 | 222 | 4.8 | 20.9 | 0.00 | 0.10 | 0.00 | 77 | 1012.7 |
| 20260506111659 | 3 | 216 | 1.6 | 19.3 | 0.00 | 0.10 | 0.00 | 77 | 1012.6 |
| 20260506110053 | 3 | 115 | 4.8 | 20.9 | 0.00 | 0.10 | 0.00 | 78 | 1012.6 |
| 20260506104547 | 3 | 210 | 8.0 | 19.3 | 0.00 | 0.10 | 0.00 | 78 | 1012.5 |
| 20260506103107 | 3 | 178 | 8.0 | 17.7 | 0.00 | 0.10 | 0.00 | 79 | 1012.6 |
| 20260506101551 | 3 | 224 | 3.2 | 22.5 | 0.00 | 0.10 | 0.00 | 79 | 1012.4 |
| 20260506100048 | 3 | 194 | 8.0 | 14.5 | 0.00 | 0.10 | 0.00 | 80 | 1012.3 |
| 20260506094559 | 3 | 198 | 8.0 | 16.1 | 0.00 | 0.10 | 0.00 | 81 | 1012.1 |
| 20260506093054 | 3 | 217 | 4.8 | 17.7 | 0.00 | 0.10 | 0.00 | 81 | 1012.2 |
| 20260506091551 | 3 | 165 | 6.4 | 22.5 | 0.00 | 0.10 | 0.00 | 80 | 1012.2 |
| 20260506090059 | 3 | 169 | 6.4 | 17.7 | 0.00 | 0.10 | 0.00 | 80 | 1011.9 |
| 20260506084601 | 3 | 243 | 3.2 | 16.1 | 0.00 | 0.10 | 0.00 | 81 | 1011.8 |
| 20260506083108 | 3 | 229 | 1.6 | 14.5 | 0.00 | 0.10 | 0.00 | 83 | 1011.5 |
| 20260506081502 | 3 | 154 | 11.3 | 20.9 | 0.00 | 0.10 | 0.00 | 83 | 1011.5 |
| 20260506073100 | 3 | 174 | 8.0 | 22.5 | 0.00 | 0.13 | 0.10 | 83 | 1011.4 |
| 20260506071557 | 3 | 194 | 8.0 | 24.1 | 0.00 | 0.13 | 0.10 | 81 | 1011.4 |
| 20260506061548 | 3 | 160 | 8.0 | 17.7 | 0.00 | 0.18 | 0.10 | 83 | 1011.2 |
| 20260506050105 | 4 | 195 | 1.6 | 9.7 | 0.00 | 0.23 | 0.10 | 83 | 1010.5 |
| 20260506044553 | 4 | 146 | 0.0 | 9.7 | 0.00 | 0.25 | 0.10 | 82 | 1010.3 |
| 20260506043044 | 5 | 137 | 1.6 | 9.7 | 0.00 | 0.25 | 0.10 | 81 | 1010.2 |
| 20260506041616 | 5 | 159 | 1.6 | 8.0 | 0.00 | 0.25 | 0.10 | 79 | 1010.3 |
| 20260506040050 | 5 | 205 | 3.2 | 12.9 | 0.00 | 0.25 | 0.10 | 78 | 1010.2 |
| 20260506034554 | 5 | 200 | 1.6 | 11.3 | 0.00 | 0.43 | 0.10 | 78 | 1010.1 |
| 20260506033040 | 5 | 248 | 6.4 | 16.1 | 0.00 | 0.43 | 0.10 | 77 | 1010.1 |
| 20260506031600 | 5 | 223 | 3.2 | 12.9 | 0.00 | 0.43 | 0.10 | 77 | 1010.1 |
| 20260506030049 | 5 | 221 | 4.8 | 16.1 | 0.00 | 0.43 | 0.10 | 76 | 1010.0 |
| 20260506024505 | 6 | 203 | 4.8 | 12.9 | 0.00 | 0.58 | 0.10 | 74 | 1009.8 |
| 20260506023055 | 6 | 262 | 3.2 | 16.1 | 0.00 | 0.58 | 0.10 | 73 | 1009.8 |
| 20260506021549 | 6 | 204 | 8.0 | 17.7 | 0.00 | 0.58 | 0.10 | 72 | 1009.8 |
| 20260506020109 | 6 | 224 | 8.0 | 20.9 | 0.00 | 0.58 | 0.10 | 73 | 1009.6 |
| 20260506014608 | 5 | 248 | 11.3 | 22.5 | 0.00 | 0.64 | 0.10 | 74 | 1009.6 |
| 20260506013104 | 5 | 236 | 12.9 | 25.7 | 0.00 | 0.64 | 0.10 | 75 | 1009.7 |
| 20260506011617 | 5 | 236 | 16.1 | 29.0 | 0.00 | 0.64 | 0.10 | 75 | 1009.6 |
| 20260506010048 | 6 | 217 | 11.3 | 24.1 | 0.00 | 0.64 | 0.10 | 75 | 1009.6 |
| 20260506004606 | 6 | 242 | 8.0 | 29.0 | 0.00 | 0.64 | 0.10 | 73 | 1009.4 |
| 20260506003052 | 7 | 247 | 12.9 | 24.1 | 0.00 | 0.64 | 0.10 | 69 | 1009.4 |
| 20260506001547 | 7 | 200 | 8.0 | 29.0 | 0.00 | 0.64 | 0.10 | 66 | 1009.3 |
| 20260506000119 | 7 | 250 | 12.9 | 29.0 | 0.00 | 0.64 | 0.10 | 64 | 1009.1 |
| 20260505234554 | 7 | 225 | 6.4 | 27.4 | 0.00 | 0.69 | 0.10 | 64 | 1008.9 |
| 20260505233055 | 8 | 238 | 12.9 | 22.5 | 0.00 | 0.69 | 0.10 | 62 | 1008.9 |
| 20260505231506 | 7 | 213 | 11.3 | 20.9 | 0.00 | 0.69 | 0.10 | 61 | 1009.0 |
| 20260505224505 | 8 | 256 | 12.9 | 32.2 | 0.00 | 0.69 | 0.10 | 64 | 1008.9 |
| 20260505223050 | 9 | 162 | 12.9 | 30.6 | 0.00 | 0.69 | 0.10 | 59 | 1008.8 |
| 20260505221602 | 8 | 194 | 14.5 | 27.4 | 0.00 | 0.69 | 0.10 | 58 | 1008.6 |
| 20260505220155 | 8 | 179 | 14.5 | 29.0 | 0.00 | 0.69 | 0.10 | 57 | 1008.4 |
| 20260505214547 | 8 | 44 | 8.0 | 25.7 | 0.00 | 0.69 | 0.10 | 58 | 1008.2 |
| 20260505213100 | 8 | 207 | 14.5 | 25.7 | 0.00 | 0.69 | 0.10 | 57 | 1007.7 |
| 20260505211554 | 8 | 241 | 9.7 | 27.4 | 0.00 | 0.69 | 0.10 | 61 | 1007.6 |
| 20260505210059 | 8 | 188 | 9.7 | 22.5 | 0.00 | 0.69 | 0.10 | 60 | 1007.4 |
| 20260505204602 | 8 | 232 | 6.4 | 24.1 | 0.00 | 0.71 | 0.10 | 60 | 1007.6 |
| 20260505203056 | 8 | 254 | 14.5 | 29.0 | 0.00 | 0.71 | 0.10 | 58 | 1007.3 |
| 20260505201503 | 8 | 243 | 12.9 | 30.6 | 0.00 | 0.71 | 0.10 | 57 | 1007.1 |
| 20260505200055 | 8 | 199 | 11.3 | 27.4 | 0.00 | 0.71 | 0.10 | 57 | 1006.9 |
| 20260505194605 | 9 | 258 | 14.5 | 29.0 | 0.00 | 0.71 | 0.10 | 57 | 1006.9 |
| 20260505193107 | 9 | 190 | 11.3 | 29.0 | 0.00 | 0.71 | 0.10 | 56 | 1006.8 |
| 20260505191608 | 10 | 201 | 11.3 | 30.6 | 0.00 | 0.71 | 0.10 | 56 | 1006.6 |
| 20260505190051 | 10 | 240 | 16.1 | 32.2 | 0.00 | 0.71 | 0.10 | 54 | 1006.7 |
| 20260505184547 | 9 | 236 | 16.1 | 38.6 | 0.00 | 0.71 | 0.10 | 57 | 1006.6 |
| 20260505183100 | 9 | 196 | 16.1 | 29.0 | 0.00 | 0.71 | 0.10 | 59 | 1006.2 |
| 20260505181555 | 9 | 182 | 11.3 | 25.7 | 0.00 | 0.71 | 0.10 | 65 | 1006.2 |
| 20260505180054 | 8 | 177 | 16.1 | 30.6 | 0.00 | 0.71 | 0.10 | 66 | 1006.2 |
| 20260505174501 | 7 | 213 | 9.7 | 30.6 | 0.00 | 0.71 | 0.10 | 72 | 1006.6 |
| 20260505173108 | 7 | 195 | 6.4 | 25.7 | 0.00 | 0.71 | 0.10 | 77 | 1006.6 |
| 20260505171628 | 6 | 237 | 9.7 | 20.9 | 0.00 | 0.71 | 0.10 | 78 | 1006.7 |
| 20260505170054 | 6 | 230 | 3.2 | 14.5 | 0.00 | 0.71 | 0.10 | 83 | 1006.6 |
| 20260505164548 | 6 | 159 | 4.8 | 17.7 | 0.00 | 0.71 | 0.10 | 85 | 1006.6 |
| 20260505163002 | 6 | 134 | 11.3 | 19.3 | 0.00 | 0.71 | 0.10 | 85 | 1006.5 |
| 20260505161527 | 6 | 166 | 9.7 | 22.5 | 0.00 | 0.71 | 0.10 | 85 | 1006.5 |